Home   Weather   USA   New Orleans   Past weeks
Flag for USA

Past Weather in New Orleans, Louisiana, USA — October 2018

Currently: 83 °F. Thundershowers. Broken clouds. (Weather station: Lakefront Airport, USA). See more current weather

October 2018 Weather in New Orleans — Graph

°F

High & Low Weather Summary for October 2018

 TemperatureHumidityPressure
High89 °F (Oct 2, 2:53 pm)100% (Oct 20, 4:53 am)30.27 "Hg (Oct 20, 4:53 am)
Low60 °F (Oct 22, 4:53 am)36% (Oct 21, 3:53 pm)29.67 "Hg (Oct 10, 4:53 am)
Average76 °F77%30.01 "Hg
* Reported Oct 1 12:53 am — Oct 31 11:53 pm, New Orleans. Weather by CustomWeather, © 2022

Note: Actual official high and low records may vary slightly from our data, if they occured in-between our weather recording intervals... More about our weather records

New Orleans Weather History for October 1, 2018

Scroll right to see more
 ConditionsComfort  
Time TempWeatherWind HumidityBarometerVisibility
12:53 am
Mon, Oct 1
79 °FClear.10 mph88%30.10 "Hg10 mi
1:53 am79 °FClear.10 mph88%30.09 "Hg10 mi
2:53 am78 °FClear.10 mph90%30.09 "Hg10 mi
3:53 am78 °FPassing clouds.8 mph90%30.08 "Hg10 mi
4:53 am79 °FClear.6 mph90%30.08 "Hg10 mi
5:53 am78 °FClear.8 mph93%30.10 "Hg10 mi
6:53 am79 °FPassing clouds.9 mph94%30.11 "Hg10 mi
8:00 am81 °FPartly sunny.8 mph91%30.16 "Hg10 mi
8:22 am81 °FBroken clouds.8 mph91%30.16 "Hg10 mi
8:29 am80 °FScattered clouds.9 mph90%30.16 "Hg10 mi
8:53 am80 °FBroken clouds.12 mph90%30.15 "Hg10 mi
9:28 am82 °FScattered clouds.9 mph85%30.17 "Hg10 mi
9:53 am84 °FSunny.8 mph80%30.15 "Hg10 mi
10:53 am85 °FPartly sunny.12 mph77%30.15 "Hg10 mi
11:24 am87 °FScattered clouds.10 mph67%30.18 "Hg10 mi
11:53 am88 °FPassing clouds.12 mph65%30.16 "Hg10 mi
12:53 pm87 °FPassing clouds.12 mph65%30.14 "Hg10 mi
1:53 pm87 °FSunny.10 mph65%30.12 "Hg10 mi
2:29 pm87 °FThundershowers. Scattered clouds.10 mph67%30.13 "Hg10 mi
2:53 pm86 °FPassing clouds.12 mph70%30.10 "Hg10 mi
3:53 pm85 °FSunny.12 mph75%30.09 "Hg10 mi
4:53 pm85 °FSunny.9 mph77%30.09 "Hg10 mi
5:53 pm84 °FSunny.10 mph74%30.09 "Hg10 mi
6:53 pm84 °FClear.7 mph74%30.10 "Hg10 mi
7:53 pm83 °FClear.7 mph79%30.11 "Hg10 mi
8:53 pm82 °FClear.7 mph82%30.13 "Hg10 mi
9:53 pm82 °FClear.8 mph82%30.13 "Hg10 mi
10:53 pm81 °FClear.7 mph85%30.12 "Hg10 mi
11:53 pm81 °FClear.8 mph85%30.12 "Hg10 mi
Weather by CustomWeather, © 2022

See weather overview